Voltar ao catálogo

STARLINK-34246

AtivoComunicaçõesVLEO
NORAD 64769·PAYLOAD·🇺🇸 United States

Lançado Jul 8, 2025 de Cape Canaveral Space Force Station

Loading…

Próximas Passagens (próximas 24 horas)

TLE

AtualizadoSource: CelesTrak SupGP

Época: Sep 15, 2026, 02:22 UTC

1 64769C 25147Q   26258.09909722 -.00016403  00000+0 -48491-3 0  2584
2 64769  53.1569  78.8455 0001204  82.8425 119.8644 15.34381611    13

Acompanhe STARLINK-34246 em tempo real com AllMySat

Download on the App Store